Location: Newark
(31.5350°N, 35.0986°E)
Time: 20:07:55
(UTC+00:00)

Vanguard 1 - Visible Passes

Search period start: 14 October 2019 00:00
Search period end: 24 October 2019 00:00
Orbit: 653 x 3830 km, 34.3° (Epoch: 14 October)

Date Brightness Start Highest point End Pass type
(mag) Time Alt. Az. Time Alt. Az. Time Alt. Az.
14 Oct 13.1 01:42:27 32° WSW 01:49:16 37° SW 02:06:44 10° SSE visible
14 Oct 11.5 16:20:05 10° SW 16:28:07 56° SE 16:37:21 24° E visible
14 Oct 11.9 18:39:31 10° W 18:50:03 80° WNW 18:50:03 80° WNW visible
14 Oct 13.5 21:01:12 10° WNW 21:37:24 20° ESE 21:41:48 10° ESE visible
14 Oct 12.9 23:50:11 57° S 23:50:11 57° S 00:07:15 10° SE visible
15 Oct 13.3 02:02:57 25° WSW 02:10:09 29° SW 02:25:58 10° S visible
15 Oct 11.4 16:40:41 10° SW 16:49:02 69° SSE 16:57:00 31° E visible
15 Oct 12.0 19:00:41 10° W 19:09:42 65° WNW 19:09:42 65° WNW visible
15 Oct 13.7 21:57:51 23° ESE 21:57:51 23° ESE 22:03:37 10° ESE visible
16 Oct 12.9 00:10:38 51° S 00:10:38 51° S 00:27:52 10° SE visible
16 Oct 13.5 02:23:24 17° WSW 02:31:00 21° SW 02:44:19 10° S visible
16 Oct 11.3 17:01:28 10° WSW 17:10:08 81° SSE 17:16:37 40° ENE visible
16 Oct 12.3 19:21:53 10° W 19:29:19 51° WNW 19:29:19 51° WNW visible
16 Oct 13.7 22:18:15 26° ESE 22:18:15 26° ESE 22:25:13 10° ESE visible
17 Oct 13.0 00:31:01 44° SSW 00:31:01 44° SSW 00:48:07 10° SSE visible
17 Oct 13.7 02:43:47 11° WSW 02:51:53 14° SW 03:00:36 10° SSW visible
17 Oct 11.4 17:22:24 10° WSW 17:31:26 89° N 17:36:12 51° ENE visible
17 Oct 12.6 19:43:04 10° W 19:48:53 39° WNW 19:48:53 39° WNW visible
17 Oct 13.6 22:38:35 29° SE 22:38:35 29° SE 22:46:32 10° SE visible
18 Oct 13.2 00:51:21 36° SSW 00:51:21 36° SSW 01:07:55 10° SSE visible
18 Oct 11.1 15:24:21 10° SW 15:30:52 53° SE 15:42:41 10° ENE visible
18 Oct 11.5 17:43:26 10° W 17:52:52 83° N 17:55:46 64° ENE visible
18 Oct 12.9 20:04:15 10° WNW 20:46:05 - ESE 20:08:27 29° WNW visible
18 Oct 13.6 22:58:50 30° SE 22:58:50 30° SE 23:07:32 10° SE visible
19 Oct 13.4 01:11:35 28° SW 01:11:35 28° SW 01:27:07 10° S visible
19 Oct 11.0 15:44:56 10° SW 15:51:43 68° SSE 16:02:37 15° ENE visible
19 Oct 11.6 18:04:30 10° W 18:14:23 80° N 18:15:18 77° NE visible
19 Oct 13.2 20:25:26 10° WNW 21:06:16 - ESE 20:28:00 21° WNW visible
19 Oct 13.5 23:19:00 30° SSE 23:19:00 30° SSE 23:28:11 10° SE visible
20 Oct 13.6 01:31:45 21° SW 01:31:45 21° SW 01:45:23 10° S visible
20 Oct 11.0 16:05:43 10° WSW 16:12:46 82° SSE 16:22:09 21° ENE visible
20 Oct 11.7 18:25:37 10° W 18:34:50 75° NW 18:34:50 75° NW visible
20 Oct 13.5 20:46:36 10° WNW 21:26:21 - ESE 20:47:31 14° WNW visible
20 Oct 13.6 23:39:05 29° S 23:39:05 29° S 23:48:26 10° SSE visible
21 Oct 13.8 01:51:49 14° SW 01:52:15 14° SW 02:01:36 10° SSW visible
21 Oct 11.0 16:26:37 10° WSW 16:33:58 87° NNW 16:41:40 28° ENE visible
21 Oct 11.9 18:46:43 10° W 18:54:21 61° WNW 18:54:21 61° WNW visible
21 Oct13.721:46:21SE21:46:21SE21:07:02WNWvisible
21 Oct 13.6 23:59:04 26° S 23:59:04 26° S 00:08:12 10° SSE visible
22 Oct 11.1 16:47:37 10° W 16:55:17 80° N 17:01:12 38° ENE visible
22 Oct 12.2 19:07:48 10° WNW 19:13:53 47° WNW 19:13:53 47° WNW visible
22 Oct 13.9 22:06:16 11° SE 22:06:16 11° SE 22:07:00 10° SE visible
23 Oct 13.7 00:18:58 21° SSW 00:18:58 21° SSW 00:27:20 10° S visible
23 Oct 11.2 17:08:39 10° W 17:16:40 78° N 17:20:44 50° ENE visible
23 Oct 12.6 19:28:52 10° WNW 19:33:25 34° WNW 19:33:25 34° WNW visible
23 Oct 14.1 22:26:04 13° SSE 22:26:04 13° SSE 22:27:40 10° SE visible
